Regional Weather Roundup
Issued by NWS

Home | Current Version | Previous Version | Text Only | Print | Product List | Glossary On
Versions: 1 2 3 4 5 6 7 8 9 10 11 12 13 14 15 16 17 18 19 20 21 22 23 24 25 26 27 28 29 30 31 32 33 34 35 36 37 38 39 40 41 42 43 44 45 46 47 48 49 50
000
ASUS43 KMPX 260310
RWRMN
WEATHER ROUNDUP FOR MINNESOTA
NATIONAL WEATHER SERVICE TWIN CITIES/CHANHASSEN MN
1000 PM CDT MON MAY 25 2015


NOTE: "FAIR" INDICATES FEW OR NO CLOUDS BELOW 12,000 FEET WITH NO
SIGNIFICANT WEATHER AND/OR OBSTRUCTIONS TO VISIBILITY. N/A MEANS
CURRENT SKY AND/OR WEATHER CONDITIONS ARE NOT AVAILABLE.

MNZ060>063-068>070-260400-
   Twin Cities Metro

CITY           SKY/WX    TMP DP  RH WIND       PRES   REMARKS
TWIN CITIES    PTCLDY    67  58  72 SW5       29.75R
ST PAUL        CLEAR     62  59  90 CALM      29.74S
CRYSTAL        CLEAR     64  57  78 CALM      29.73S
BLAINE         CLEAR     66  59  77 SW3       29.74S
LAKEVILLE      CLEAR     63  61  94 S5        29.76R
EDEN PRAIRIE   CLEAR     64  58  80 W5        29.74R
SOUTH ST PAUL  CLEAR     64  58  80 CALM      29.75R
LAKE ELMO      FAIR      61  59  94 CALM      29.75S
$$
MNZ001>005-007-008-013>017-022>024-027-028-260400-
   Northwest Minnesota

CITY           SKY/WX    TMP DP  RH WIND       PRES   REMARKS
BEMIDJI        CLOUDY    54  52  94 CALM      29.81F
HALLOCK        PTCLDY    66  52  59 S13       29.77R
ROSEAU         MOCLDY    63  54  72 S8        29.79R
WARROAD        MOCLDY    63  54  72 S5        29.80R
THIEF RVR FALL MOCLDY    61  52  72 SE8       29.82S
CROOKSTON      PTCLDY    61  54  77 S10       29.82R
FOSSTON        CLOUDY    54  50  87 CALM      29.83S
DETROIT LAKES  CLOUDY    55  52  88 CALM      29.83R
MOORHEAD       PTCLDY    57  52  82 NE3       29.83R
PARK RAPIDS    CLOUDY    56  51  84 NE7       29.80R
MAHNOMEN       FAIR      55  52  89 NE6       29.82S
$$
MNZ006-009>011-018-025>026-260400-
   North Central Minnesota

CITY           SKY/WX    TMP DP  RH WIND       PRES   REMARKS
BAUDETTE       CLOUDY    59  51  75 S7        29.81R
FLAG ISLAND    CLOUDY    59  55  88 S10       29.77R
INTL FALLS     CLOUDY    54  52  93 CALM      29.81R
WASKISH        CLOUDY    55  52  88 CALM      29.83R
BIG FORK       LGT RAIN  55  54  94 E3        29.80F
LONGVILLE      LGT RAIN  55  54  94 NE5       29.79R
GRAND RAPIDS   CLOUDY    54  50  87 N6        29.79S
CRANE LAKE     DRIZZLE   52  52 100 CALM      29.83R
ORR            CLOUDY    54  52  94 CALM      29.78S
COOK           RAIN      55  54  94 CALM      29.81R
WALKER         CLOUDY    54  51  90 E8        29.79F
$$
MNZ012-019>021-037-260400-
   Northeast Minnesota

CITY           SKY/WX    TMP DP  RH WIND       PRES   REMARKS
DULUTH         CLOUDY    51  49  92 NE5       29.77R FOG
ELY            LGT RAIN  54  52  94 NE5       29.80R
HIBBING        LGT RAIN  54  50  86 N7        29.78R
EVELETH        DRIZZLE   54  52  94 NE9G17    29.79R
DULUTH HARBOR  DRIZZLE   45  45 100 E7        29.79R
TWO HARBORS    CLOUDY    54  48  82 NE3       29.75R
GRAND MARAIS     N/A     43  42  97 SW9       29.76R
G MARAIS ARPRT LGT RAIN  52  48  87 N9G17     29.78R
$$
MNZ029>031-032-039>041-046>048-054>057-064-260400-
   West Central Minnesota

CITY           SKY/WX    TMP DP  RH WIND       PRES   REMARKS
FERGUS FALLS   CLEAR     57  52  82 E7        29.81R
WHEATON        CLEAR     54  52  94 N5        29.81F
MORRIS         CLOUDY    57  52  82 N12       29.79R
ALEXANDRIA     CLOUDY    57  51  80 NE18G25   29.78R
ELBOW LAKE     FAIR      57  51  80 N14       29.78S
WADENA         CLOUDY    55  52  88 NE10G16   29.79R
GLENWOOD       CLOUDY    57  54  88 N13       29.77R
APPLETON       CLOUDY    59  52  77 N9        29.78S
BENSON         CLOUDY    59  52  77 NE8       29.79R
ORTONVILLE     PTCLDY    57  52  82 N9        29.81R
MADISON        MOCLDY    57  54  88 N3        29.80R
WILLMAR        FAIR      61  55  82 W6        29.78F
$$
MNZ033>034-036-042>043-049>051-058-059-260400-
   Central Minnesota

CITY           SKY/WX    TMP DP  RH WIND       PRES   REMARKS
ST CLOUD       MOCLDY    61  56  83 SW8       29.74R
SAUK CENTRE    CLOUDY    57  53  89 N10       29.78R
PAYNESVILLE    CLEAR     54  53  96 SW6       29.76S
AITKIN         CLOUDY    55  50  82 N6        29.75R
PINE RIVER     MOCLDY    54  54 100 N6        29.83R
BRAINERD       CLOUDY    55  54  96 NE12      29.77R
STAPLES        CLOUDY    55  52  88 N9        29.78R
LONG PRAIRIE   CLOUDY    54  52  94 N12       29.77R
LITTLE FALLS   CLOUDY    55  54  94 N3        29.76R
LITCHFIELD     CLEAR     63  59  88 W7        29.75F
BUFFALO        CLEAR     62  56  80 SW6       29.74F
MAPLE LAKE     CLEAR     62  57  83 W6        29.75S
$$
MNZ037-044-045-052-053-260400-
   East Central Minnesota

CITY           SKY/WX    TMP DP  RH WIND       PRES   REMARKS
PRINCETON      CLEAR     63  55  77 S3        29.74R
MORA           CLOUDY    61  55  82 CALM      29.75R
CAMBRIDGE      CLEAR     64  54  68 CALM      29.72R
RUSH CITY      PTCLDY    62  56  82 CALM      29.74R
MOOSE LAKE     CLOUDY    48  48 100 NE5       29.75R
HINCKLEY       CLOUDY    61  61 100 N3        29.74R
CLOQUET        CLOUDY    50  48  93 CALM      29.77R
MCGREGOR       CLOUDY    54  54 100 NE8       29.76R
$$
MNZ071>073-080-081-089-090-097-098-260400-
   Southwest Minnesota

CITY           SKY/WX    TMP DP  RH WIND       PRES   REMARKS
MONTEVIDEO     MOCLDY    59  55  88 N3        29.80R
GRANITE FALLS  PTCLDY    59  56  88 NW7       29.80R
CANBY          CLOUDY    58  54  86 NW6       29.82R
MARSHALL       CLOUDY    59  52  77 NW9       29.80R
REDWOOD FALLS  CLEAR     60  56  86 W8        29.77R
OLIVIA         CLEAR     55  52  88 W7        29.76S
PIPESTONE      PTCLDY    61  55  82 VRB5      29.79R
WINDOM         MOCLDY    63  57  82 CALM      29.79R
WORTHINGTON    PTCLDY    61  55  82 CALM      29.79R
JACKSON        MOCLDY    64  59  82 N6        29.80R
TRACY          PTCLDY    60  56  87 NW8       29.80R
SLAYTON        PTCLDY    60  58  90 N10       29.80R
$$
MNZ065>067-074>077-082>085-091>093-260400-
   South Central Minnesota

CITY           SKY/WX    TMP DP  RH WIND       PRES   REMARKS
MANKATO        PTCLDY    64  59  82 NW5       29.78R
NEW ULM        CLEAR     63  57  82 CALM      29.77R
ST JAMES       FAIR      66  61  82 NW5       29.79R
FAIRMONT       MOCLDY    64  55  72 NW3       29.79R
GLENCOE        CLEAR     64  59  86 W5        29.75S
FARIBAULT      PTCLDY    63  61  94 S3        29.78R
OWATONNA       CLEAR     61  57  88 SE5       29.79R
WASECA         PTCLDY    59  55  88 E5        29.79R
ALBERT LEA     MOCLDY    70  57  64 S5        29.79R
$$
MNZ078>079-086>088-094>096-260400-
   Southeast Minnesota

CITY           SKY/WX    TMP DP  RH WIND       PRES   REMARKS
ROCHESTER      PTCLDY    65  58  78 S6        29.80R
RED WING       PTCLDY    63  61  94 CALM      29.75S
STANTON        CLEAR     63  60  90 S5        29.75R
DODGE CENTER   CLEAR     66  59  77 NW3       29.80R
WINONA         CLEAR     70  63  78 S3        29.77F
AUSTIN         PTCLDY    64  57  77 S5        29.80R
PRESTON        PTCLDY    65  59  79 S8        29.81R
$$
ABBREVIATIONS USED IN REMARKS
   TC - TEMPERATURES IN CELSIUS
  WCI - WIND CHILL INDEX
   HX - HEAT INDEX
  VSB - VISIBILITY
$$



USA.gov is the U.S. government's official web portal to all federal, state and local government web resources and services.